Vorticity
nan nan nan nan nan nan nan nan nan nan nan nan nan nan nan nan nan nan nan nan nan nan nan nan nan nan nan nan nan nan nan nan nan nan nan nan nan nan nan nan nan nan nan
nan 4 4 5 6 5 5 7 9 9 7 7 7 6 5 4 5 5 6 5 4 5 4 7 9 9 7 6 8 6 4 5 6 4 1 3 7 5 5 4 10 7 nan
nan 6 5 3 6 5 4 5 6 7 8 7 7 7 6 5 4 5 4 4 5 4 5 5 6 9 8 6 8 6 5 5 5 5 -0 2 5 5 4 9 8 5 nan
nan 5 6 3 6 6 5 4 5 6 6 6 6 6 6 5 5 4 3 4 4 4 4 5 6 7 7 6 6 5 5 5 6 2 6 6 4 8 6 5 5 5 nan
nan 4 6 6 6 5 5 5 5 6 6 5 5 5 5 5 4 4 4 4 3 4 4 6 7 7 6 6 6 6 5 6 5 1 7 9 4 9 5 4 6 7 nan
nan 6 3 6 5 5 4 5 6 6 6 5 5 5 5 5 5 5 6 6 5 6 6 5 7 7 8 8 7 5 6 6 0 6 1 3 13 10 6 4 2 5 nan
nan 8 5 5 5 6 5 5 5 5 6 5 4 5 6 6 6 6 6 6 7 6 5 6 6 6 8 9 7 6 6 2 2 6 6 3 15 6 4 6 6 5 nan
nan 6 6 5 6 6 5 5 5 5 4 5 5 5 5 5 6 5 5 6 6 6 6 6 6 7 8 9 7 7 5 3 4 6 6 6 6 4 5 6 4 5 nan
nan 6 6 6 5 4 5 4 5 5 4 5 5 5 4 3 5 5 5 5 5 7 7 8 7 7 7 9 8 3 5 5 1 8 5 10 6 5 6 6 5 5 nan
nan 5 6 7 5 4 5 6 5 5 5 4 5 5 5 3 6 5 7 9 5 7 7 8 9 8 9 8 6 4 6 4 6 2 3 17 10 7 6 5 6 6 nan
nan 6 5 6 5 6 6 7 4 5 5 5 5 7 4 6 8 4 5 6 6 6 6 9 10 10 5 9 11 9 3 2 9 4 11 11 7 6 6 5 6 6 nan
nan 6 6 5 5 5 6 7 7 7 6 5 6 5 4 6 2 4 11 7 5 7 6 8 10 9 7 5 9 8 6 6 6 7 13 8 6 6 6 6 6 6 nan
nan 6 7 6 6 5 6 5 8 7 8 9 8 5 5 5 11 10 4 8 11 8 8 9 6 7 4 5 8 9 9 6 5 9 10 8 6 6 6 7 7 7 nan
nan 7 7 7 6 4 6 7 6 6 8 7 8 7 7 8 6 5 10 8 5 11 9 8 5 8 9 8 5 6 4 8 3 8 9 10 6 6 6 7 6 5 nan
nan 8 8 7 6 7 6 5 6 8 6 7 9 7 6 5 5 6 7 5 10 8 4 7 9 8 8 8 8 6 8 6 5 4 10 10 7 8 7 7 7 4 nan
nan 8 7 7 7 6 6 7 5 7 8 8 7 8 7 3 5 4 7 8 9 7 8 7 7 7 8 8 8 7 7 7 11 4 8 7 11 9 10 9 5 3 nan
nan 7 7 7 7 7 8 7 7 8 8 8 8 9 9 8 6 5 5 6 6 8 8 7 7 7 8 8 9 8 8 9 9 8 6 7 11 9 12 9 7 8 nan
nan 7 6 7 8 7 7 6 7 7 6 7 11 13 10 8 6 5 3 8 9 7 8 6 6 6 9 8 8 9 8 9 9 10 7 6 4 11 15 13 9 6 nan
nan 7 7 7 7 8 7 7 8 6 6 8 9 8 9 10 7 6 9 9 6 6 7 5 5 10 9 8 7 8 8 8 9 8 7 11 7 5 13 15 9 11 nan
nan 9 8 8 9 6 7 8 8 8 9 8 7 8 8 9 8 7 6 8 8 9 7 7 7 8 5 8 10 9 9 8 9 8 9 11 8 8 6 8 16 15 nan
nan 12 11 9 7 7 7 8 8 8 9 9 8 9 9 9 9 8 7 9 7 8 7 8 9 7 8 9 8 9 8 9 8 8 8 8 10 12 9 9 5 9 nan
nan 9 9 13 13 7 8 7 8 11 9 7 10 8 11 10 10 8 9 9 10 9 12 10 7 7 10 6 6 9 11 11 11 11 9 7 9 8 12 12 4 4 nan
nan 8 11 12 11 8 7 10 9 8 7 9 8 9 9 10 10 10 10 9 9 8 11 12 11 10 6 8 10 5 7 10 11 13 9 7 10 7 9 9 9 8 nan
nan 9 9 9 10 10 8 7 6 6 9 12 10 9 10 10 10 11 11 11 10 11 7 8 11 12 9 9 10 8 3 7 10 7 9 13 11 9 8 6 12 10 nan
nan 8 8 9 9 10 10 10 7 9 11 7 9 9 12 13 11 12 12 11 10 9 10 10 8 6 10 10 7 8 11 8 4 5 8 7 10 14 12 11 8 8 nan
nan nan nan nan nan nan nan nan nan nan nan nan nan nan nan nan nan nan nan nan nan nan nan nan nan nan nan nan nan nan nan nan nan nan nan nan nan nan nan nan nan nan nan
CAPE
1278 1509 2691 2711 2597 2722 2740 3111 3262 3366 3304 3120 3017 2492 2398 2425 2352 2386 2333 2341 2213 1842 1640 1528 1465 1438 1352 1251 1123 1400 1475 1071 1399 1269 1269 1223 1159 1033 957 697 668 552 746
1308 1432 2596 2813 2854 2628 2815 3224 3666 3489 3385 3311 2967 2666 2419 2497 2434 2458 2232 2090 2120 2074 1954 1458 1411 1444 1578 1400 1035 1647 1411 1448 1406 1357 1161 1179 843 864 318 254 1336 348 808
1201 1507 1680 2826 2910 2570 2794 3177 3319 3723 3501 3162 3412 3005 2684 2641 2628 2328 2273 1968 2131 1971 1778 1810 1571 1439 1691 1281 1274 1581 1434 1262 1260 1120 1249 511 368 535 300 829 617 835 898
1117 1444 1533 2777 2962 2574 2771 3001 3314 3478 3154 3353 3360 3095 2899 2712 2511 2286 2209 2115 1883 1801 1828 1738 1723 1583 1613 1464 1486 1562 1227 1113 992 1283 975 393 135 593 601 736 266 607 482
1054 1057 1862 2954 2917 2556 2771 3216 3275 3300 3133 3003 2875 2719 2615 2532 2505 2399 2281 2158 1909 1801 1838 1777 1909 1670 1808 1578 1630 1593 1273 1154 1261 1216 533 509 388 849 999 743 695 635 744
1161 1185 2398 3169 2519 2500 2688 3084 3043 3023 2994 2806 2652 2632 2740 2673 2570 2365 2136 1953 1767 1988 2092 1813 1993 1771 1762 1410 1707 1789 1548 1364 1398 760 680 620 425 816 953 686 133 665 583
1433 1580 2058 3241 3193 3035 2873 2927 2981 2959 2964 2729 2770 2883 2965 2986 2535 2317 2286 2075 1927 1932 1924 1850 1728 1801 1453 1289 1751 1868 1779 1567 1093 539 700 452 828 1294 698 739 412 648 586
1550 1820 2136 3058 3256 2964 2712 2777 2840 2778 2714 2720 2806 2743 2691 2604 2553 2485 2277 2199 2057 1786 1837 1557 1486 1662 1639 1407 1822 1823 1772 1599 669 573 641 564 674 1299 430 882 642 865 876
1674 1978 2280 2282 2533 2685 2709 2819 2772 2689 2497 2425 2404 2446 2633 2824 2632 2387 1932 2240 2147 1933 1768 1734 1433 1386 1725 1534 1768 1758 1793 1422 663 746 443 475 993 833 740 794 809 345 711
1898 1942 2198 2232 2346 2417 2482 2994 2936 2950 2785 2777 2654 2511 2471 2554 2710 2106 1948 2303 2329 2070 1773 1513 1401 1526 1654 1679 1360 1643 1602 1475 898 950 1042 1054 1521 1104 854 756 1043 769 928
1956 2041 2315 2552 2514 3089 2659 2843 3082 2767 2755 2765 2721 2588 2522 2040 2287 1909 1898 2238 2154 2031 1901 1570 1478 1241 1569 1482 1691 977 1787 1339 1304 965 1296 1671 1790 1154 1110 1101 578 1149 993
1844 1942 2077 2458 2658 2859 2656 2935 2915 2743 2644 2569 2512 2762 2167 1697 1741 1805 2117 2185 2017 1914 2004 1924 1520 1374 1312 860 1255 1568 1081 605 1029 1412 960 1648 1769 1113 1189 1268 1290 850 1156
1842 1948 1988 2249 2649 2736 2545 3140 3534 3919 3533 2647 2705 2864 2553 2298 2493 1575 1395 2338 1691 1997 1665 1811 1575 1244 1261 1574 1391 1488 849 926 1202 1250 1342 1692 1797 1070 1306 1374 1264 1046 1051
2005 1859 1924 2247 2554 2635 3151 2591 2508 2842 3400 2796 2807 2800 3289 2366 2226 1975 1486 2132 2507 1939 1809 1686 1802 1664 1671 1611 1089 1314 1733 981 1003 1203 1431 1703 1884 1606 1169 1533 1273 926 1003
2076 1831 1893 2394 2620 2600 2736 1695 2058 1939 2161 1919 2047 1875 1634 1714 704 328 1297 1818 2753 2568 1984 2035 1710 1532 1670 1683 1426 1299 1074 1156 780 716 997 1550 1555 1835 1839 1771 1350 569 913
2147 1911 2142 2509 2733 2657 2190 2117 1733 1576 2000 1586 1436 1164 1743 1295 297 239 115 1161 3034 2696 1830 1959 2034 1880 1588 1610 1576 1516 1632 1226 1113 1036 695 1346 1645 1657 1734 1633 1391 169 877
2513 2246 2340 2684 2593 2508 2428 2232 1716 1465 1537 1284 1392 1454 1239 1881 1506 644 112 234 1239 3221 1984 1979 1753 1877 1949 1578 1329 1482 1317 1565 1015 1031 837 662 1399 1469 1410 1633 1245 754 522
2899 2857 2800 2330 2476 2744 2743 2484 2288 2037 2671 2719 2670 1932 1808 1693 1500 1495 1979 2276 1835 1484 1260 1299 1429 1391 1778 1992 2077 1502 1539 1773 1524 1162 857 706 824 1027 1339 1311 1334 954 634
3211 3439 3265 3083 2956 3227 3257 2896 2701 2434 2367 1943 2117 1926 1883 2063 1687 2370 1701 1452 2106 1521 1231 1148 1183 1333 1793 1859 1573 1350 1422 1649 1976 1653 1582 1278 1009 732 780 1600 1360 808 970
3124 3501 3433 3506 3445 3402 3368 3277 2555 2969 2283 2119 1869 1853 2069 2230 2018 2286 3003 2566 2429 2390 1217 1001 1219 1166 1846 1750 1323 996 1060 1309 1592 1425 1752 2099 1074 1786 1735 1584 1995 1138 1032
2644 3214 3328 3431 3791 3625 2932 2618 2598 1846 1611 2469 1822 2279 2181 2066 1981 1986 1804 2117 2377 2563 1916 1199 1514 1534 1020 1252 1518 883 1030 1252 1662 1318 2232 1994 1477 1527 1808 1601 1261 1184 1670
2111 2449 2459 2342 2968 3211 2952 2920 2526 2800 2393 2185 2018 1913 1779 1751 1875 1827 1890 2368 2239 2575 2374 1902 1471 2239 821 879 1097 829 1029 931 947 1305 1572 1581 1581 1914 1564 1926 1140 1543 1969
1110 1767 1714 2685 3171 3060 2595 2731 2755 2413 2153 1728 1052 709 711 840 909 1175 1305 1489 1567 1886 1712 2291 1960 1665 1362 832 1317 898 960 687 534 1506 1693 1331 1428 2387 1512 1736 1823 1930 2030
923 1204 1925 1717 2384 2783 2884 2783 2658 2077 1037 728 669 701 909 786 736 725 955 1115 1261 1286 932 674 758 956 1522 1679 1328 797 949 917 537 481 621 1080 1545 1870 1823 1475 1444 1600 1718
668 968 905 1526 2255 2647 2673 2444 1619 744 603 783 780 843 897 868 893 772 779 846 1139 1725 1241 974 1004 485 886 1789 1716 1047 1401 787 845 442 376 288 446 815 1050 1400 1361 1491 1155
801 629 1040 2007 2254 2263 1927 1494 1136 1302 1077 1014 1044 761 660 668 711 720 858 1013 1130 1426 1168 1218 1413 545 238 504 1770 1379 949 1417 952 1154 1195 699 402 521 331 434 703 463 698